Weather History for CYBU - November, 2013

Change the Weather History Date:

Monday, November 11, 2013

  Actual Average Record
Temperature  
Mean Temperature -6 °F -  
Max Temperature 17 °F 21 °F - ()
Min Temperature -26 °F 8 °F - ()
Degree Days  
Heating Degree Days 71    
Moisture  
Dew Point -14 °F    
Average Humidity 79    
Maximum Humidity 92    
Minimum Humidity 63    
Precipitation  
Precipitation 0.00 in - - ()
Sea Level Pressure  
Sea Level Pressure 30.64 in    
Wind  
Wind Speed 7 mph ()    
Max Wind Speed 14 mph    
Max Gust Speed -    
Visibility 7.3 miles    
Events Snow    
T = Trace of Precipitation, MM = Missing Value Source: Averaged Metar Reports

Daily Weather History Graph

Daily Weather History Graph

Search for Another Location

Airport or City:

Trip Planner

Search our weather history database for the weather conditions in past years. The results will help you decide how hot, cold, wet, or windy it might be!

Date:

Astronomy

Nov. 11, 2013 Rise Set
Actual Time 8:14 AM CST 5:05 PM CST
Civil Twilight 7:35 AM CST 5:43 PM CST
Nautical Twilight 6:53 AM CST 6:25 PM CST
Astronomical Twilight 6:12 AM CST 7:06 PM CST
Moon 2:32 PM CST (11/11) 1:11 AM CST (11/11)
Length of Visible Light 10h 07m
Length of Day
8h 50m
Waxing Gibbous, 66% of the Moon is Illuminated
Nov 11
Waxing Gibbous
Nov 17
Full
Nov 25
Last Quarter
Dec 2
New
Dec 9
First Quarter

Hourly Weather History & Observations

Time (CST) Temp. Windchill Dew Point Humidity Pressure Visibility Wind Dir Wind Speed Gust Speed Precip Events Conditions
12:00 AM -13 °F - -17 °F 73% 30.66 in 10 mi SSW 4.6 mph - -  
12:00 AM -13.0 °F -22.7 °F -16.6 °F 84% 30.66 in 9.0 mi SW 3.5 mph - N/A   Clear
1:00 AM -14.8 °F - -18.4 °F 84% 30.67 in 9.0 mi SSW 2.3 mph - N/A   Clear
2:00 AM -9.4 °F -20.9 °F -13.0 °F 84% 30.66 in 9.0 mi South 4.6 mph - N/A   Clear
3:00 AM -22.0 °F -37.7 °F -27.4 °F 76% 30.68 in 9.0 mi SSE 5.8 mph - N/A   Clear
4:00 AM -23.8 °F -39.8 °F -29.2 °F 76% 30.68 in 9.0 mi South 5.8 mph - N/A   Scattered Clouds
4:50 AM -18.4 °F -31.4 °F -23.8 °F 76% 30.68 in 9.0 mi South 4.6 mph - N/A Snow Light Snow
5:00 AM -18.4 °F -31.4 °F -23.8 °F 76% 30.68 in 9.0 mi SSE 4.6 mph - N/A Snow Light Snow
5:10 AM -16.6 °F -32.9 °F -20.2 °F 84% 30.67 in 5.0 mi SSE 6.9 mph - N/A Snow Light Snow
5:33 AM -18.4 °F -35.1 °F -23.8 °F 76% 30.68 in 6.0 mi South 6.9 mph - N/A Snow Light Snow
6:00 AM -20 °F - -25 °F 63% 30.70 in 7 mi South 6.9 mph - - Snow Light Snow
6:00 AM -20.2 °F -37.3 °F -25.6 °F 76% 30.70 in 8.0 mi South 6.9 mph - N/A Snow Light Snow
6:40 AM -20.2 °F -41.3 °F -25.6 °F 76% 30.69 in 9.0 mi SSE 10.4 mph - N/A   Clear
7:00 AM -18.4 °F -37.9 °F -23.8 °F 76% 30.69 in 9.0 mi SSE 9.2 mph - N/A   Clear
7:35 AM -20.2 °F -40.1 °F -25.6 °F 76% 30.69 in 5.0 mi South 9.2 mph - N/A   Haze
7:41 AM -20.2 °F -40.1 °F -25.6 °F 76% 30.69 in 6.0 mi South 9.2 mph - N/A   Haze
7:50 AM -20.2 °F -40.1 °F -25.6 °F 76% 30.69 in 5.0 mi SSE 9.2 mph - N/A   Haze
8:00 AM -20.2 °F -40.1 °F -25.6 °F 76% 30.69 in 3.0 mi SSE 9.2 mph - N/A   Haze
8:05 AM -20.2 °F -38.8 °F -23.8 °F 83% 30.69 in 2.2 mi South 8.1 mph - N/A   Haze
8:13 AM -18.4 °F -36.6 °F -23.8 °F 76% 30.69 in 3.0 mi South 8.1 mph - N/A   Haze
8:17 AM -18.4 °F -35.1 °F -23.8 °F 76% 30.69 in 6.0 mi SSE 6.9 mph - N/A   Haze
8:39 AM -20.2 °F -41.3 °F -23.8 °F 83% 30.69 in 5.0 mi SSE 10.4 mph - N/A   Haze
9:00 AM -18.4 °F -36.6 °F -22.0 °F 84% 30.68 in 3.0 mi SSE 8.1 mph - N/A   Haze
9:16 AM -18.4 °F -31.4 °F -23.8 °F 76% 30.68 in 6.0 mi South 4.6 mph - N/A   Haze
9:34 AM -16.6 °F -29.3 °F -22.0 °F 76% 30.67 in 5.0 mi SSE 4.6 mph - N/A   Haze
9:39 AM -16.6 °F -34.4 °F -22.0 °F 76% 30.67 in 2.5 mi SSE 8.1 mph - N/A   Haze
9:57 AM -14.8 °F -32.2 °F -18.4 °F 84% 30.67 in 3.0 mi SSE 8.1 mph - N/A   Clear
10:00 AM -14.8 °F -30.8 °F -18.4 °F 84% 30.67 in 7.0 mi SSE 6.9 mph - N/A   Clear
11:00 AM -7.6 °F -23.4 °F -13.0 °F 77% 30.67 in 9.0 mi SSE 8.1 mph - N/A   Clear
12:00 PM -4 °F - -7 °F 78% 30.66 in 10 mi SSE 10.4 mph - -  
12:00 PM -4.0 °F -20.2 °F -7.6 °F 85% 30.65 in 9.0 mi SSE 9.2 mph - N/A   Clear
1:00 PM 1.4 °F -13.5 °F -2.2 °F 85% 30.63 in 9.0 mi SSE 9.2 mph - N/A   Clear
2:00 PM 5.0 °F -10.0 °F 3.2 °F 92% 30.60 in 9.0 mi South 10.4 mph - N/A   Clear
3:00 PM 8.6 °F -4.7 °F 1.4 °F 73% 30.58 in 9.0 mi South 9.2 mph - N/A   Clear
4:00 PM 10.4 °F -4.1 °F 3.2 °F 73% 30.57 in 9.0 mi South 11.5 mph - N/A   Clear
5:00 PM 10.4 °F -2.4 °F 5.0 °F 79% 30.55 in 9.0 mi South 9.2 mph - N/A   Clear
6:00 PM 11 °F - 7 °F 76% 30.53 in 10 mi South 12.7 mph - -  
6:00 PM 10.4 °F -4.8 °F 6.8 °F 85% 30.53 in 9.0 mi South 12.7 mph - N/A   Clear
7:00 PM 12.2 °F -1.0 °F 8.6 °F 85% 30.51 in 9.0 mi South 10.4 mph - N/A   Clear
8:00 PM 12.2 °F -1.8 °F 8.6 °F 85% 30.50 in 9.0 mi South 11.5 mph - N/A   Clear
9:00 PM 14.0 °F -0.8 °F 10.4 °F 86% 30.48 in 9.0 mi South 13.8 mph - N/A   Clear
10:00 PM 14.0 °F 0.5 °F 10.4 °F 86% 30.46 in 9.0 mi SSW 11.5 mph - N/A   Clear
11:00 PM 17.6 °F 4.3 °F 14.0 °F 86% 30.44 in 9.0 mi SSW 12.7 mph - N/A   Clear